This is the latest recevied weather packets stored in our database for station/object LU8FCJ-5. If no packets are shown the sender has not sent any weather packets the latest 10 day(s).
| Time | Temp. | Humidity | Pressure | Rain* | Wind** | Luminosity | Snow |
|---|---|---|---|---|---|---|---|
| 1778200255 | 11.11° C | 76% | 1007.9 hPa | 0 mm | - | 116 W/m² | - |
| 1778199945 | 11.11° C | 75% | 1007.9 hPa | 0 mm | - | 116 W/m² | - |
| 1778199635 | 11.67° C | 74% | 1007.6 hPa | 0 mm | - | 116 W/m² | - |
| 1778199329 | 11.67° C | 74% | 1007.8 hPa | 0 mm | - | 116 W/m² | - |
| 1778198704 | 11.67° C | 74% | 1007.8 hPa | 0 mm | - | 116 W/m² | - |
| 1778198395 | 11.67° C | 74% | 1007.8 hPa | 0 mm | - | 116 W/m² | - |
| 1778198084 | 11.67° C | 73% | 1007.5 hPa | 0 mm | - | 116 W/m² | - |
| 1778197774 | 11.67° C | 74% | 1007.6 hPa | 0 mm | - | 116 W/m² | - |
| 1778197464 | 11.67° C | 73% | 1007.3 hPa | 0 mm | - | 116 W/m² | - |
| 1778197154 | 11.11° C | 74% | 1007.3 hPa | 0 mm | - | 116 W/m² | - |
| 1778196844 | 11.11° C | 73% | 1007.4 hPa | 0 mm | - | 116 W/m² | - |
| 1778196534 | 11.67° C | 73% | 1007.3 hPa | 0 mm | - | 116 W/m² | - |
| 1778196223 | 11.67° C | 72% | 1007 hPa | 0 mm | - | 116 W/m² | - |
| 1778195913 | 12.22° C | 71% | 1006.8 hPa | 0 mm | - | 116 W/m² | - |
| 1778195604 | 12.78° C | 70% | 1006.7 hPa | 0 mm | - | 116 W/m² | - |
| 1778195293 | 12.78° C | 70% | 1007 hPa | 0 mm | - | 116 W/m² | - |
| 1778194982 | 12.78° C | 70% | 1007 hPa | 0 mm | - | 116 W/m² | - |
| 1778194673 | 12.78° C | 70% | 1006.6 hPa | 0 mm | - | 152 W/m² | - |
| 1778194362 | 12.78° C | 69% | 1006.7 hPa | 0 mm | - | 152 W/m² | - |
| 1778194053 | 12.78° C | 68% | 1006.5 hPa | 0 mm | - | 152 W/m² | - |
| 1778193745 | 12.78° C | 67% | 1006.5 hPa | 0 mm | - | 152 W/m² | - |
| 1778193432 | 12.78° C | 67% | 1006.5 hPa | 0 mm | - | 152 W/m² | - |
| 1778193122 | 12.78° C | 67% | 1006.4 hPa | 0 mm | - | 152 W/m² | - |
| 1778192812 | 12.22° C | 66% | 1006.2 hPa | 0 mm | - | 152 W/m² | - |
| 1778192501 | 12.22° C | 66% | 1006.1 hPa | 0 mm | - | 152 W/m² | - |
* Rain latest hour (hover to see other rain measurements)
** Current wind speed in m/s (hover to see current wind gust speed)